Weather in Kislyakovskaya

Russia / Krasnodar Krai     46°26′15″N   39°40′16″E
temp.,
°C
wind,
m/s
gust,
m/s
humid.,
%
clouds,
%
prec.,
mm/h
press.,
hPa
HPBL,
m
25 february, thu
thu2500:00−11ese486643 0.0 1039323
03:00−11ene466635 0.0 1038249
06:00−11e246556 0.0 1037236
09:00−10se235942 0.0 1037237
12:00−5s224859 0.0 1035310
15:00−2wsw244271 0.0 1033455
18:00−2sw3549100 0.0 1031105
21:00−2wsw4957100 0.0 1031319
26 february, fri
fri2600:00−1wsw61380100 0.0 1029399
03:000wsw61387100 0.0 1028411
06:00+1wsw61394100 0.1 1027394
09:00+2wsw61297100 0.2 1027388
12:00+3wsw71398100 0.4 1025370
15:00+4wsw61398100 0.8 1024387
18:00+3wsw51198100 0.0 1023353
21:00+3wsw51497100 0.0 1023392
27 february, sat
sat2700:00+4wsw71696100 0.0 1021494
03:00+5wsw71594100 0.0 1020517
06:00+5wsw71594100 0.0 1017526
09:00+5wsw71595100 0.4 1017510
12:00+6wsw81592100 0.5 1015675
15:00+6wsw81691100 1.6 1014720
18:00+5wsw71493100 2.1 1013586
21:00+4nw3699100 5.7 1013282
28 february, sun
sun2800:00+3w2597100 2.4 1013160
03:00+3w3698100 3.1 1014230
06:00+1nw239484 0.0 101482
09:00+2nw468771 0.0 1016334
12:00+4nw568354 0.1 1016669
15:00+4wnw467877 0.3 1017789
18:00+3wnw368499 0.2 1018466
21:00+2nw368698 0.3 1021173
1 march, mon
mon100:000n248488 0.0 1022110
03:00−1nnw258080 0.0 1024225
06:00−1nnw247889 0.0 1025187
09:000n346973 0.0 1026630
12:00+2n346192 0.0 1028929
15:00+2n336094 0.0 10281044
18:00+1n3468100 0.0 1029274
21:00−1nnw237695 0.0 1031103